LEMUR-2-TINYKEV (43883 NORAD) Tracking and Keplerian Element Data

This shows tracking and keplerian element data for the satellite.

Feedback or suggestion? Click here.




ElementValue
Catalog43883
NameLEMUR-2-TINYKEV
Epoch Orbit370
Epoch Day20.95521884
Epoch Year2019
RAAN291.0699
Inclination97.7284
Eccentricity0.0012214
Argument of Perigee154.7963
Mean Anonmoly205.3857
Mean Motion14.96368653
Decay Rate1.112E-05
L11 43883U 18111H 19020.95521884 .00001112 00000-0 10325-3 0 9991
L22 43883 97.7284 291.0699 0012214 154.7963 205.3857 14.96368653 3707

Live tracking and technical data element details for LEMUR-2-TINYKEV (NORAD 43883). LEMUR-2-TINYKEV can be tracked NOW for your location showing map with azimuth and elevation plus other details from your city location.

Track the satellite on the map from your city or location and see movement details for azimuth, elevation, latitude, longitude, range, height, and movement on the map or in text.







IsCatalogInMostPopularTable: catalog: 43883, numindb: 19
Update: records affected: 1



GetName: 43883 LEMUR-2-TINYKEV

Hit Count: updated at: Wed, 23 Jan 2019 03:00:49 GMT